SL-16 DEB, 39852

Orbit data source: Space-Track

SL-16 DEB, 39852 is space debris in LEO originally from a launch on Fri, 25 Dec 1992 UTC launched from the Tyuratam Missile And Space Complex (TTMTR). Debris objects in space refer to the collection of defunct objects orbiting the Earth. Examples of debris include non-operational satellites, rocket bodies, and fragments generated from explosions, collisions, or faulty payload assembly.

Loading next visibility...
Identifier
39852, 1992-093LE
Orbit
LEO
Country
Flag of CISCIS
Related business
Manufacturer
Unknown
Mission
Spacecraft
Bus & Motor
Unknown
Mass
Unknown
Launch date (UTC)
1992-12-25 (33 years ago)
Launch vehicle
Unknown
Launch site
Tyuratam Missile And Space Complex (TTMTR)
Object type
Payload
Rocket body
Debris
Shape & HBR
Unknown shape, 0.1 m
Radar Cross Section
Small (<0.1 m²)

Expand to show TLE details & history
Last TLE update: 6 days ago

TLE from 6 days ago
0 SL-16 DEB
1 39852U 92093LE  26167.63797074  .00004573  00000-0  86293-3 0  9995
2 39852  70.9983 142.0900 0003056 301.4966  58.5884 14.65003003  3412
Epoch: 2026-06-16T15:18Z
TLE epoch observation values (Epoch: 2026-06-16T15:18:40.671Z)
Latitude
-0.00005°
Longitude
7.51338°
Altitude
678.399 km
Speed
7.518 km/s
True Right ascension
09h 28m 21s
True Declination
0° 00' 00"
Sunlit
Object was in daylight at epoch
Visualization orbit readout
Latitude
Unknown
Longitude
Unknown
Altitude
Unknown
Speed
Unknown
Apparent Right ascension
Unknown
Apparent Declination
Unknown
Sunlit
N/A
Visualization observer readout
Local Sidereal Time
01:06:56
Azimuth
Unknown
Elevation
Unknown
Doppler factor
Unknown
Orbital elements
Apogee altitude
677.097 km
Perigee altitude
672.787 km
Semi-major axis
7,053.079 km
Eccentricity
0.00031
Inclination
70.9983°
RAAN
142.09°
Arg. of periapsis
301.4966°
True anomaly
58.61829°
Mean anomaly
58.5884°
Eccentric anomaly
58.60335°
Mean motion
3.66417 °/min
Orbital period
98.25 mins
BSTAR
0.00086293
Loading maneuver chart data...
Computing Atmospheric mass density...
Loading historical data...
Loading historical data...
Loading historical data...
Loading historical data...
Loading historical data...
Loading historical data...
Loading historical data...

Documentation

Showing up to 5 results
|